Showing default

ICEYE-X2, 43800

Orbit data source: Space-Track

ICEYE-X2, 43800 is a payload satellite owned by ICEYE (FI) in SSO that was launched on Mon, 03 Dec 2018 UTC via an FALCON 9 launch vehicle from the Air Force Western Test Range (AFWTR). Payload-class satellites include a variety of spacecraft equipped with specific instruments for various scientific and technological missions. These include communications satellites like Starlink; space stations such as the ISS; scientific satellites like the Hubble; Earth observation satellites from companies like Planet Labs, Umbra, and HawkEye 360; GPS; miniature CubeSats for education and research; and military/defense satellites.

Loading next visibility...
Identifier
43800, 2018-099AU
Orbit
SSO
Country
Flag of FIFI / FIN
Related business
Manufacturer
ICEYE
Mission
Operational Commercial Radar Imaging
Bus & Motor
ICEYE, Unknown motor
Mass
80 kg wet, 80 kg dry
Launch date (UTC)
2018-12-03 (8 years ago)
Launch vehicle
FALCON 9
Launch site
Air Force Western Test Range (AFWTR)
Object type
Payload
Rocket body
Debris
Shape & HBR
Box + 1 Pan, 2.4 m
Radar Cross Section
1.837 m², Medium (>0.1 m² and < 1m²)

Expand to show TLE details & history
Last TLE update: 5 hours ago

TLE from 5 hours ago
0 ICEYE-X2
1 43800U 18099AU  26194.18141115  .00002896  00000-0  14549-3 0  9997
2 43800  97.4349 247.5670 0009646 201.9761 158.1061 15.18025257416767
Epoch: 2026-07-13T04:21Z
TLE epoch observation values (Epoch: 2026-07-13T04:21:13.923Z)
Latitude
0.00002°
Longitude
-108.81062°
Altitude
521.065 km
Speed
7.599 km/s
True Right ascension
16h 30m 16s
True Declination
0° 00' 00"
Sunlit
Object was in full shadow at epoch
Visualization orbit readout
Latitude
Unknown
Longitude
Unknown
Altitude
Unknown
Speed
Unknown
Apparent Right ascension
Unknown
Apparent Declination
Unknown
Sunlit
N/A
Visualization observer readout
Local Sidereal Time
22:06:47
Azimuth
Unknown
Elevation
Unknown
Doppler factor
Unknown
Orbital elements
Apogee altitude
515.422 km
Perigee altitude
502.136 km
Semi-major axis
6,886.916 km
Eccentricity
0.00096
Inclination
97.4349°
RAAN
247.567°
Arg. of periapsis
201.9761°
True anomaly
158.14727°
Mean anomaly
158.1061°
Eccentric anomaly
158.12669°
Mean motion
3.79757 °/min
Orbital period
94.8 mins
BSTAR
0.00014549
Loading maneuver chart data...
Computing Atmospheric mass density...
Loading historical data...
Loading historical data...
Loading historical data...
Loading historical data...
Loading historical data...
Loading historical data...
Loading historical data...

Documentation

Showing up to 5 results
|